,

(GMT )
St. Athan

Weather History for EGDX - January, 2013

Change the Weather History Date:

Sunday, January 6, 2013

  Actual Average Record
Temperature  
Mean Temperature 46 °F -  
Max Temperature 48 °F - - ()
Min Temperature 44 °F - - ()
Degree Days  
Heating Degree Days 19    
Moisture  
Dew Point 46 °F    
Average Humidity 97    
Maximum Humidity 100    
Minimum Humidity 91    
Precipitation  
Precipitation 0.00 in - - ()
Sea Level Pressure  
Sea Level Pressure 30.44 in    
Wind  
Wind Speed 3 mph ()    
Max Wind Speed 8 mph    
Max Gust Speed -    
Visibility 6.3 miles    
Events Rain    
T = Trace of Precipitation, MM = Missing Value Source: Averaged Metar Reports

Daily Weather History Graph

Daily Weather History Graph

Search for Another Location

Airport or City:

Trip Planner

Search our weather history database for the weather conditions in past years. The results will help you decide how hot, cold, wet, or windy it might be!

Date:

Astronomy

Jan. 06, 2013 Rise Set
Actual Time 8:17 AM GMT 4:21 PM GMT
Civil Twilight 7:38 AM GMT 5:01 PM GMT
Nautical Twilight 6:55 AM GMT 5:43 PM GMT
Astronomical Twilight 6:15 AM GMT 6:24 PM GMT
Moon 1:57 AM GMT (1/6) 11:55 AM GMT (1/6)
Length of Visible Light 9h 23m
Length of Day
8h 04m
Waning Crescent, 35% of the Moon is Illuminated
Jan 6
Waning Crescent
Jan 11
New
Jan 18
First Quarter
Jan 27
Full
Feb 3
Last Quarter

Hourly Weather History & Observations

Time (GMT) Temp. Windchill Dew Point Humidity Pressure Visibility Wind Dir Wind Speed Gust Speed Precip Events Conditions
12:50 AM 48.2 °F - 46.4 °F 93% 30.51 in 6.2 mi NNE 2.3 mph - N/A   Overcast
1:50 AM 46.4 °F - 46.4 °F 100% 30.51 in 5.6 mi NE 2.3 mph - N/A   Overcast
2:50 AM 47 °F - 46 °F 97% 30.51 in 5 mi NE 2.3 mph - - Rain Drizzle
2:50 AM 46.4 °F - 46.4 °F 100% 30.51 in 5.0 mi NE 2.3 mph - N/A   Overcast
3:50 AM 46.4 °F - 46.4 °F 100% 30.51 in 5.6 mi NE 2.3 mph - N/A   Mostly Cloudy
4:50 AM 46.4 °F 45.2 °F 46.4 °F 100% 30.48 in 4.3 mi East 3.5 mph - N/A   Overcast
5:50 AM 47 °F - 46 °F 96% 30.51 in 4 mi NE 2.3 mph - -   Mist
5:50 AM 46.4 °F - 46.4 °F 100% 30.48 in 4.3 mi NE 2.3 mph - N/A   Overcast
6:50 AM 46.4 °F 45.2 °F 46.4 °F 100% 30.48 in 5.0 mi NE 3.5 mph - N/A   Overcast
7:50 AM 44.6 °F 43.1 °F 44.6 °F 100% 30.48 in 3.1 mi East 3.5 mph - N/A   Overcast
8:50 AM 45 °F - 45 °F 98% 30.50 in 3 mi East 3.5 mph - -   Mist
8:50 AM 44.6 °F 43.1 °F 44.6 °F 100% 30.48 in - East 3.5 mph - N/A   Mostly Cloudy
9:50 AM 46.4 °F 44.3 °F 46.4 °F 100% 30.48 in 5.0 mi ESE 4.6 mph - N/A   Overcast
10:50 AM 46.4 °F 43.5 °F 46.4 °F 100% 30.48 in 4.3 mi East 5.8 mph - N/A   Mostly Cloudy
11:50 AM 46.4 °F 43.5 °F 46.4 °F 100% 30.45 in 5.0 mi ESE 5.8 mph - N/A   Mostly Cloudy
12:50 PM 46.4 °F 44.3 °F 46.4 °F 100% 30.42 in 6.2 mi East 4.6 mph - N/A   Overcast
1:50 PM 48.2 °F - 46.4 °F 93% 30.42 in 6.2 mi SE 5.8 mph - N/A   Overcast
2:50 PM 48 °F - 46 °F 91% 30.42 in 11 mi SE 3.5 mph - -   Overcast
2:50 PM 48.2 °F - 46.4 °F 93% 30.39 in 6.2 mi SE 3.5 mph - N/A   Overcast
3:50 PM 48.2 °F - 46.4 °F 93% 30.39 in 6.2 mi SSE 5.8 mph - N/A   Overcast
4:50 PM 48.2 °F - 46.4 °F 93% 30.39 in 6.2 mi SSE 8.1 mph - N/A   Mostly Cloudy
5:50 PM 47 °F - 47 °F 99% 30.39 in 8 mi SSE 6.9 mph - -   Partly Cloudy
5:50 PM 48.2 °F - 46.4 °F 93% 30.36 in 6.2 mi SSE 6.9 mph - N/A   Mostly Cloudy
6:50 PM 48.2 °F - 46.4 °F 93% 30.36 in 6.2 mi SSE 8.1 mph - N/A   Overcast
7:50 PM 48.2 °F - 46.4 °F 93% 30.36 in 6.2 mi South 5.8 mph - N/A   Overcast
8:50 PM 47 °F - 47 °F 98% 30.38 in 13 mi South 5.8 mph - - Rain Drizzle
9:50 PM 48.2 °F - 46.4 °F 93% 30.36 in 6.2 mi South 6.9 mph - N/A   Overcast
10:50 PM 48.2 °F - 46.4 °F 93% 30.36 in 6.2 mi South 6.9 mph - N/A   Overcast
11:50 PM 47 °F - 46 °F 93% 30.36 in 17 mi SSE 3.5 mph - - Rain Light Rain Showers
11:50 PM 48.2 °F - 46.4 °F 93% 30.36 in 6.2 mi SSE 3.5 mph - N/A Rain Light Rain Showers